[[{"header":{"parameterUnit":"m.s-1","parameterCategory":1,"la1":30.2991,"la2":30.254,"lo1":-89.0895,"lo2":-89.0444,"dy":0.0017,"dx":0.0017,"nx":28,"ny":28,"refTime":"2025-11-12T03:00:00:Z","depth":0,"parameterNumber":2,"parameterNumberName":"U-component_of_WINDS"},"data":[0,0,0,0,0,0,0,0,0,0,0,0,0,0,0,0,0,0,0,0,0,0,0,0,0,0,0,0,0,0,0,0,0,0,0,0,0,0,0,0,0,0,0,0,0,0,0,0,0,0,0,0,0,0,0,0,0,0,0.9642,0.9643,0,0.9738,0.9739,0.9741,0.9713,0.9711,0.9709,0.9707,0.9803,0.9807,0.9812,0,0,0,0,0,0,0,0,0,0,0,0,0,0.943,0.9434,0.9642,0.9643,0.9645,0.9738,0.974,0.9741,0.9713,0.971,0.9708,0.9706,0.9802,0.9807,0.9812,0,0,0,0,0,0,0,0,0,0,0,0,0,0.9524,0.9435,0.9642,0.9642,0.9643,0.9738,0.974,0.9741,0.9713,0.971,0.9707,0.9705,0.98,0.9806,0.9813,0.9913,0,0,0.9833,0.9836,0,0,0,0,0,0,0,0,0.9518,0.9532,0.9641,0.9642,0.9643,0.971,0.97,0.9799,0.9714,0.9687,0.9707,0.9703,0.9774,0.9783,0.9807,0.9917,0.9922,0.9834,0.9838,0.984,0.9842,0,0,0,0,0,0,0,0.9512,0.9527,0.968,0.9642,0.9644,0.9636,0.9646,0.9719,0.9746,0.9689,0.9687,0.9699,0.9775,0.9801,0.9809,0.9923,0.9833,0.9839,0.9843,0.9846,1.0116,1.0119,0,0,0,0,0,0,0.9505,0.9522,0.9677,0.9683,0.9572,0.9642,0.9653,0.9692,0.9745,0.975,0.9701,0.9697,0.9791,0.9802,0.9813,0.9931,0.984,0.9847,0.985,1.0113,1.0117,1.012,0,0,0,0,0,0,0.9501,0.9519,0.9673,0.9602,0.9621,0.9649,0.9692,0.9695,0.9722,0.9755,0.9759,0.9724,0.9789,0.9803,0.9888,0.9934,0.985,0.9856,1.0109,1.0114,1.0119,1.0169,0,0,0,0,0,0,0.9495,0.9518,0.9557,0.9603,0.9625,0.9748,0.9695,0.9699,0.9734,0.9729,0.9777,0.9782,0.9788,0.9878,0.9894,0.9941,0.9861,1.0105,1.0111,1.0117,1.0164,1.0175,1.0185,0,0,0,0,0,0.9487,0.9568,0.9559,0.9578,0.9675,0.9751,0.9763,0.9769,0.9738,0.9776,0.9797,0.978,0.9927,0.9887,0.9905,0.9955,1.0102,1.011,1.0117,1.0159,1.0173,1.0185,0,0,0,0,0,0,0.9526,0.9574,0.9565,0.9663,0.9703,0.9746,0.9795,0.9785,0.9834,0.9827,0.9833,0.9844,0.9929,0.9951,0.9905,1.0053,1.0009,1.0021,1.0035,1.0049,1.006,1.0052,0.9866,0,0,0,0,0,0.9547,0.9605,0.9643,0.9726,0.9747,0.9767,0.9801,0.9802,0.9843,0.986,0.9886,0.9926,0.998,1.0016,1.0069,1.0167,1.0175,1.021,1.0221,1.023,1.0239,1.0289,1.0304,1.0144,1.0144,1.0144,0,0,0.9589,0.9622,0.9659,0.9735,0.9766,0.9824,0.9782,0.9846,0.9889,0.9869,0.9949,0.9971,1.0015,1.0106,1.0147,1.0126,1.0285,1.0239,1.0246,1.025,1.0298,1.0313,1.0327,1.0149,1.0148,1.0147,0,0,0.9695,0.9727,0.9798,0.983,0.9877,0.989,0.9907,0.9951,0.9964,1.0045,1.0031,1.0081,1.0176,1.0207,1.0236,1.0351,1.0336,1.0368,1.0424,1.0473,1.0486,1.0497,1.0535,1.0549,1.0377,1.0378,1.0378,0,0.9741,0.983,0.9836,0.9901,0.9934,0.9919,0.9989,1.002,1.0081,1.0103,1.008,1.0196,1.0225,1.0322,1.035,1.0374,1.0392,1.0362,1.0484,1.0495,1.0505,1.0542,1.0557,1.0381,1.0381,1.038,1.038,0,0.9882,0.9944,0.9996,1.0055,1.0094,1.0162,1.0176,1.0215,1.0212,1.0227,1.0308,1.0343,1.04,1.0423,1.0422,1.0519,1.0504,1.0482,1.0438,1.0524,1.0558,1.0572,1.0386,1.0384,1.0383,1.0383,0,0,1.0016,1.0077,1.0096,1.0121,1.0172,1.0219,1.0285,1.0341,1.0372,1.0415,1.0469,1.0548,1.0527,1.056,1.0561,1.0605,1.069,1.0577,1.0578,1.0595,1.0796,1.081,1.0827,1.0682,1.0685,1.0687,1.0791,0,1.0124,1.0241,1.0247,1.0352,1.0407,1.0393,1.045,1.0486,1.0501,1.0549,1.0566,1.0621,1.0591,1.061,1.0652,1.0671,1.073,1.0664,1.0729,1.0731,1.0716,1.0845,1.0861,1.0958,1.0805,1.0807,1.0809,0,1.0266,1.0313,1.0423,1.0463,1.0486,1.0538,1.0588,1.0635,1.0675,1.0683,1.0718,1.0713,1.0778,1.0733,1.0822,1.0776,1.0803,1.0816,1.082,1.0825,1.0774,1.085,1.0989,1.1003,1.0831,1.0829,1.0827,0,1.0349,1.0439,1.0516,1.0539,1.0588,1.0624,1.0646,1.0683,1.0715,1.076,1.078,1.0832,1.0859,1.0898,1.0906,1.0873,1.0994,1.095,1.1,1.0999,1.1024,1.1022,1.1167,1.1046,1.1046,1.1045,1.1045,0,1.0468,1.0535,1.0554,1.0601,1.0675,1.0681,1.0754,1.0773,1.0806,1.0855,1.0846,1.0892,1.0901,1.0949,1.0956,1.1026,1.1039,1.1046,1.1046,1.1045,1.1044,1.1061,1.1054,1.1049,1.1048,1.1048,1.1047,0,1.0572,1.0588,1.067,1.0709,1.0721,1.0773,1.0806,1.085,1.0864,1.0926,1.0941,1.0963,1.1018,1.103,1.1096,1.11,1.1183,1.1178,1.117,1.1168,1.1216,1.1211,1.1375,1.1396,1.1264,1.1265,1.1266,0,1.0646,1.0697,1.0741,1.0774,1.0797,1.085,1.0883,1.0891,1.0925,1.0973,1.101,1.1065,1.1108,1.1196,1.1217,1.1266,1.1261,1.1315,1.1268,1.1265,1.1258,1.1254,1.1258,1.1324,1.1325,1.1326,1.1327,0,1.0774,1.0778,1.0827,1.0877,1.0916,1.0957,1.0995,1.1021,1.1034,1.1073,1.1129,1.1163,1.1229,1.1282,1.1331,1.1352,1.1341,1.1342,1.1355,1.1354,1.1345,1.1348,1.1191,1.1338,1.1337,1.1336,1.1335,1.1335,1.0863,1.0907,1.0944,1.0997,1.1027,1.1062,1.1105,1.1124,1.1171,1.1226,1.1227,1.1288,1.1323,1.1388,1.1412,1.1458,1.1441,1.1462,1.1466,1.147,1.1473,1.134,1.1467,1.1467,1.1467,1.1467,1.1466,0,1.0988,1.1011,1.106,1.1113,1.1154,1.1142,1.1182,1.1217,1.1271,1.1306,1.1348,1.1411,1.1462,1.1486,1.1536,1.1568,1.1564,1.158,1.1577,1.1581,1.1487,1.1469,1.1583,1.1583,1.1582,1.1582,1.1582,1.1582,1.1058,1.113,1.1139,1.1225,1.1247,1.1307,1.1331,1.1362,1.1389,1.146,1.1503,1.1518,1.1548,1.1599,1.1644,1.165,1.1667,1.1686,1.1689,1.16,1.1588,1.1577,1.156,1.169,1.169,1.1778,1.1779,1.178]},{"header":{"parameterUnit":"m.s-1","parameterCategory":1,"la1":30.2991,"la2":30.254,"lo1":-89.0895,"lo2":-89.0444,"dy":0.0017,"dx":0.0017,"nx":28,"ny":28,"refTime":"2025-11-12T03:00:00:Z","depth":0,"parameterNumber":3,"parameterNumberName":"V-component_of_WINDS"},"data":[0,0,0,0,0,0,0,0,0,0,0,0,0,0,0,0,0,0,0,0,0,0,0,0,0,0,0,0,0,0,0,0,0,0,0,0,0,0,0,0,0,0,0,0,0,0,0,0,0,0,0,0,0,0,0,0,0,0,1.5065,1.5064,0,1.4976,1.4975,1.4974,1.4843,1.4841,1.4838,1.4836,1.4747,1.4746,1.4746,0,0,0,0,0,0,0,0,0,0,0,0,0,1.5122,1.5121,1.5066,1.5064,1.5063,1.4977,1.4975,1.4974,1.4843,1.484,1.4838,1.4835,1.4747,1.4746,1.4746,0,0,0,0,0,0,0,0,0,0,0,0,0,1.5072,1.5121,1.5066,1.4988,1.498,1.4977,1.4975,1.4974,1.4844,1.484,1.4837,1.4834,1.4747,1.4746,1.4746,1.4813,0,0,1.4745,1.4745,0,0,0,0,0,0,0,0,1.5075,1.507,1.5,1.4993,1.4984,1.4917,1.4962,1.492,1.4845,1.4896,1.4836,1.4832,1.4806,1.4801,1.4792,1.4809,1.4805,1.4745,1.4745,1.4745,1.4744,0,0,0,0,0,0,0,1.5078,1.5073,1.503,1.4999,1.4989,1.4957,1.4946,1.4954,1.4871,1.4891,1.4881,1.4872,1.4801,1.4792,1.4789,1.4804,1.4745,1.4745,1.4744,1.4744,1.4868,1.4871,0,0,0,0,0,0,1.5093,1.5077,1.5033,1.5028,1.5022,1.4958,1.4946,1.4942,1.4871,1.4857,1.4875,1.4866,1.4795,1.4789,1.4785,1.4856,1.4745,1.4744,1.4744,1.4864,1.4868,1.4872,0,0,0,0,0,0,1.5095,1.5091,1.5037,1.5049,1.504,1.4961,1.4958,1.4942,1.4933,1.4859,1.4844,1.4881,1.4792,1.4786,1.4806,1.4851,1.4744,1.4744,1.486,1.4865,1.487,1.5001,0,0,0,0,0,0,1.5097,1.5092,1.5117,1.5051,1.504,1.506,1.4961,1.4943,1.4933,1.492,1.4861,1.4848,1.4789,1.4807,1.4806,1.4849,1.4744,1.4856,1.4862,1.4869,1.4992,1.501,1.5025,0,0,0,0,0,1.51,1.5159,1.5119,1.5115,1.5069,1.5063,1.5057,1.4987,1.4937,1.4961,1.4913,1.485,1.4847,1.4811,1.4808,1.4852,1.4852,1.486,1.4868,1.4985,1.5007,1.5025,0,0,0,0,0,0,1.5234,1.5149,1.5104,1.5143,1.5111,1.5041,1.5069,1.5013,1.4995,1.4984,1.4898,1.4886,1.4917,1.4886,1.4847,1.4911,1.484,1.4847,1.493,1.495,1.4966,1.4972,1.4743,0,0,0,0,0,1.5267,1.5269,1.5195,1.5237,1.5223,1.5149,1.5144,1.5092,1.5056,1.5042,1.4996,1.4963,1.4954,1.495,1.4938,1.4987,1.4971,1.5016,1.5032,1.5046,1.5054,1.5074,1.5092,1.4898,1.4898,1.4898,0,0,1.5338,1.5292,1.5298,1.5262,1.5232,1.5235,1.5139,1.5147,1.5148,1.5043,1.5059,1.5024,1.4981,1.5016,1.5029,1.4991,1.5103,1.5056,1.5068,1.5067,1.5084,1.5103,1.5119,1.4903,1.4902,1.4901,0,0,1.5467,1.5434,1.5463,1.5434,1.5387,1.5338,1.5345,1.5282,1.5255,1.5269,1.519,1.519,1.5177,1.5149,1.5133,1.525,1.519,1.5248,1.5334,1.5355,1.5371,1.5384,1.5423,1.5438,1.5256,1.5256,1.5256,0,1.5561,1.5562,1.5486,1.5498,1.5484,1.5388,1.5416,1.5392,1.5345,1.5337,1.5295,1.5275,1.524,1.5265,1.5293,1.5284,1.5289,1.5254,1.5375,1.5387,1.5398,1.5434,1.545,1.5263,1.5263,1.5262,1.5261,0,1.5678,1.5681,1.571,1.5665,1.5654,1.5675,1.5601,1.5599,1.5548,1.5503,1.5517,1.5471,1.5447,1.5449,1.5401,1.5466,1.5444,1.539,1.5317,1.5425,1.5458,1.5471,1.5274,1.5271,1.5269,1.5267,0,0,1.5891,1.5802,1.5814,1.5791,1.5732,1.5732,1.5747,1.5722,1.5721,1.5692,1.5701,1.5691,1.564,1.5622,1.5569,1.5588,1.5679,1.553,1.5528,1.5558,1.5746,1.5786,1.5804,1.5639,1.5642,1.5644,1.5749,0,1.6007,1.6028,1.5959,1.5997,1.5997,1.5905,1.5918,1.5883,1.584,1.5833,1.5785,1.5779,1.5713,1.5701,1.5715,1.5666,1.5716,1.5657,1.5646,1.5647,1.5659,1.5821,1.5864,1.5966,1.5762,1.5764,1.5765,0,1.6147,1.6122,1.6161,1.6097,1.6094,1.6107,1.6077,1.6072,1.6029,1.5997,1.5976,1.5913,1.5922,1.5853,1.5863,1.5825,1.5816,1.5791,1.5793,1.5788,1.5712,1.582,1.5997,1.6012,1.5785,1.5783,1.5782,0,1.6295,1.6272,1.6291,1.6275,1.6202,1.6213,1.6183,1.6136,1.6125,1.6099,1.609,1.6066,1.6053,1.6035,1.5967,1.5923,1.5985,1.591,1.5956,1.5958,1.5973,1.5973,1.615,1.597,1.597,1.597,1.597,0,1.6432,1.6459,1.6357,1.6369,1.6395,1.6314,1.6342,1.6303,1.6262,1.6264,1.6183,1.6186,1.6097,1.609,1.6037,1.6052,1.6047,1.602,1.6005,1.6026,1.6029,1.6019,1.6009,1.5974,1.5973,1.5972,1.5971,0,1.6602,1.6535,1.655,1.6478,1.6461,1.6483,1.6421,1.6429,1.638,1.6383,1.6379,1.6302,1.6289,1.622,1.6191,1.6155,1.6188,1.616,1.6203,1.6193,1.6243,1.6238,1.6418,1.6437,1.6247,1.6249,1.6251,0,1.6693,1.6711,1.6641,1.6636,1.6609,1.6603,1.659,1.6511,1.6501,1.6452,1.6465,1.6445,1.6425,1.6408,1.6349,1.6326,1.6296,1.636,1.6292,1.6312,1.6294,1.6294,1.6294,1.6375,1.6378,1.638,1.6381,0,1.6861,1.6827,1.6812,1.6784,1.6771,1.6746,1.6716,1.6717,1.6628,1.6621,1.6606,1.6591,1.656,1.6541,1.6507,1.6475,1.6413,1.6403,1.6412,1.6433,1.6456,1.6442,1.6241,1.6399,1.6398,1.6396,1.6395,1.6394,1.6993,1.7004,1.6955,1.694,1.6909,1.6882,1.6885,1.6835,1.6822,1.679,1.6744,1.6735,1.6689,1.6637,1.661,1.66,1.6565,1.6579,1.6582,1.6587,1.6597,1.6459,1.6594,1.6594,1.6593,1.6593,1.6592,0,1.7155,1.7119,1.7106,1.7066,1.7054,1.6996,1.6959,1.6952,1.6945,1.6908,1.6889,1.687,1.685,1.679,1.6763,1.6767,1.6738,1.6763,1.6761,1.6754,1.6631,1.6624,1.6787,1.6787,1.6787,1.6787,1.6787,1.6787,1.7238,1.7252,1.7211,1.7208,1.7171,1.7161,1.7145,1.7119,1.7088,1.7071,1.7054,1.7014,1.6966,1.6935,1.6914,1.6896,1.6889,1.6923,1.6896,1.6782,1.6763,1.6745,1.6739,1.6923,1.6923,1.702,1.7021,1.7022]}]]